Regional Weather Roundup
Issued by NWS

Home | Current Version | Previous Version | Text Only | Print | Product List | Glossary On
Versions: 1 2 3 4 5 6 7 8 9 10 11 12 13 14 15 16 17 18 19 20 21 22 23 24 25 26 27 28 29 30 31 32 33 34 35 36 37 38 39 40 41 42 43 44 45 46 47 48 49 50
000
ASUS45 KBOU 240707
RWRCO

WEATHER ROUNDUP FOR COLORADO
NATIONAL WEATHER SERVICE DENVER/BOULDER CO
100 AM MDT SUN SEP 24 2017

NOTE: "FAIR" INDICATES FEW OR NO CLOUDS BELOW 12000 FEET WITH NO
SIGNIFICANT WEATHER AND/OR OBSTRUCTIONS TO VISIBILITY.

COZ001>005-013-030-031-240800-
...NORTHWEST COLORADO...

CITY           SKY/WX    TMP DP  RH WIND       PRES   REMARKS
CRAIG          FAIR      40  36  86 N5        29.88S
HAYDEN         FAIR      40  37  89 SE12      29.90F
MEEKER         FAIR      38  36  92 SE3       29.88R
RABBIT EARS PA FAIR      32  32 100 SE6       30.04S WCI  26
STEAMBOAT SPGS FAIR      35  35  99 E3        29.91S
WALDEN         FAIR      32  30  93 CALM      30.00R
$$

COZ006>008-011-240800-
...WEST CENTRAL VALLEYS...

CITY           SKY/WX    TMP DP  RH WIND       PRES   REMARKS
GRAND JUNCTION FAIR      44  43  96 E6        29.80F
MONTROSE       FAIR      43  42  97 S3        29.87S
EAGLE          FAIR      37  35  92 E5        29.95S
RIFLE          FAIR      43  41  93 S3        29.85S
DELTA          NOT AVBL
NUCLA          FAIR      50  37  62 S6        29.87R
$$

COZ017>023-064>068-240800-
...SOUTHWEST COLORADO...

CITY           SKY/WX    TMP DP  RH WIND       PRES   REMARKS
DURANGO        FAIR      37  37 100 CALM      29.92S
CORTEZ         FAIR      45  41  86 S6        29.86S
PAGOSA SPRINGS MOCLDY    37  37 100 CALM      29.97S
TELLURIDE      FAIR      42  32  67 E3        29.99S
WOLF CREEK PAS CLOUDY    30  30 100 S16G22    30.15F WCI  19
$$

COZ009-010-012-014-032>034-037-058>063-240800-
...CENTRAL COLORADO...

CITY           SKY/WX    TMP DP  RH WIND       PRES   REMARKS
ASPEN          FAIR      36  33  89 SW5       29.92F
BUENA VISTA    FAIR      37  34  87 W5        29.98S
COPPER MTN     FAIR      36  21  55 MISG      30.12S
BERTHOUD PASS  FAIR      27  18  69 SE15      30.14S WCI  15
COTTONWOOD PAS   N/A     43  39  87 CALM      30.04F
GUNNISON       FAIR      33  32  96 NE6       29.96S WCI  28
KREMMLING      FAIR      36  34  93 CALM      29.99R
LEADVILLE      FAIR      31  29  92 NE6       30.03R WCI  25
MONARCH PASS   FAIR      32  30  93 S17       30.22S WCI  21
SALIDA         FAIR      45  43  93 CALM      30.04S
SUNLIGHT       FAIR      32  30  93 E7        30.06S WCI  26
WILKERSON PASS FAIR      34  32  93 SW7       30.14S WCI  28
$$

COZ069>075-240800-
...SAN LUIS VALLEY/SANGRE DE CRISTO MOUNTAINS...

CITY           SKY/WX    TMP DP  RH WIND       PRES   REMARKS
ALAMOSA        CLOUDY    41  40  96 SW5       29.96F
DEL NORTE      CLOUDY    38  37  94 W9        30.00R
LA VETA PASS   FOG       39  37  93 CALM      30.19F VSB 1/2
SAGUACHE       MOCLDY    37  37 100 CALM      29.99S
$$

COZ035-036-038>040-240800-
...NORTHERN COLORADO FRONT RANGE...

CITY           SKY/WX    TMP DP  RH WIND       PRES   REMARKS
DENVER INTL AP CLOUDY    45  42  89 NE3       29.99F
DMNS CITY PARK   N/A     45  45  99 NE1G9     30.00S
AURORA         CLOUDY    44  44 100 NE3       30.01S
FRONT RANGE AP LGT RAIN  45  45 100 N3        30.00S
ERIE MUNI ARPT CLOUDY    46  44  94 E5        30.05F FOG
BOULDER MUN AP CLOUDY    45  45 100 NE3       29.99F
CENTENNIAL     CLOUDY    44  43  96 E5        30.01S
BROOMFIELD     CLOUDY    45  45 100 E3        30.01S FOG
FORT COLLINS   LGT RAIN  46  44  93 S6        30.01S
LONGMONT       CLOUDY    48  46  91 E5        30.02F
$$

COZ041-046-047-076>085-087-088-240800-
...PIKES PEAK/PALMER DIVIDE AND SOUTHERN FOOTHILLS...

CITY           SKY/WX    TMP DP  RH WIND       PRES   REMARKS
COLO. SPRINGS  CLOUDY    46  42  86 N12       30.00S
A. F. ACADEMY  LGT RAIN  43  43 100 NW10      30.00R
SCHRIEVER AFB  RAIN      44  41  91 MISG      29.97S
CHEYENNE MTN   CLOUDY    42  40  92 N13G24    29.93S
ELLICOTT       LGT RAIN N/A N/A N/A N13       29.95F
FALCON         DRIZZLE   42  40  95 N13G18    30.01R
FORT CARSON    LGT RAIN  47  42  83 N15       29.94F
LIMON            N/A    N/A N/A N/A MISG      29.92F
MONUMENT HILL  DRIZZLE   37  37 100 N6        30.03S
CANON CITY     CLOUDY    52  46  82 SE12      29.94S
WALSENBURG     CLOUDY    48  45  87 N15       29.96F
TRINIDAD       FAIR      53 N/A N/A NW7       29.92S
$$

COZ042>045-048>051-090-091-240800-
...NORTHEAST COLORADO...

CITY           SKY/WX    TMP DP  RH WIND       PRES   REMARKS
GREELEY ARPT   CLOUDY    47  45  93 W5        30.01R
AKRON          RAIN      47  44  90 NE9       29.95R
BURLINGTON     LGT RAIN  49  48  97 N18G26    29.91F
WRAY           CLOUDY   N/A N/A N/A NW10G16   29.94F
YUMA           LGT RAIN  45  45 100 N8        29.93F
STERLING       LGT RAIN  45  45 100 N7        29.95R
HOLYOKE        LGT RAIN  48  45  87 N13       29.95R
FORT MORGAN    LGT RAIN  46  44  93 CALM      29.97F
$$

COZ086-089-092>099-240800-
...SOUTHEAST COLORADO...

CITY           SKY/WX    TMP DP  RH WIND       PRES   REMARKS
PUEBLO         RAIN      50  46  86 CALM      29.93R FOG
LA JUNTA       LGT RAIN  53  51  93 NE8       29.88F
LAMAR          RAIN      53  51  93 N14G22    29.86R FOG
SPRINGFIELD      N/A     58  58 100 S17       29.88F
$$



USA.gov is the U.S. government's official web portal to all federal, state and local government web resources and services.